Regional Weather Roundup
Issued by NWS

Home | Current Version | Previous Version | Text Only | Print | Product List | Glossary Off
Versions: 1 2 3 4 5 6 7 8 9 10 11 12 13 14 15 16 17 18 19 20 21 22 23 24 25 26 27 28 29 30 31 32 33 34 35 36 37 38 39 40 41 42 43 44 45 46 47 48 49 50

000
ASUS45 KBOI 011710
RWRID

IDAHO REGIONAL WEATHER ROUNDUP
NATIONAL WEATHER SERVICE BOISE ID
1100 AM MDT TUE SEP 01 2015

NOTE: "FAIR" INDICATES FEW OR NO CLOUDS BELOW 12000 FEET
WITH NO SIGNIFICANT WEATHER AND/OR OBSTRUCTIONS TO VISIBILITY

IDZ012-014-011800-
SOUTHWEST IDAHO


CITY           SKY/WX    TMP DP  RH WIND       PRES   REMARKS
BOISE          SUNNY     73  39  29 CALM      29.93S
CALDWELL       SUNNY     66  41  39 NW3       29.94S
MOUNTAIN HOME  SUNNY     72  39  30 E5        29.93F
$$

IDZ016-017-011800-
SOUTHCENTRAL IDAHO


CITY           SKY/WX    TMP DP  RH WIND       PRES   REMARKS
BURLEY         SUNNY     71  38  29 VRB3      29.99S
JEROME         SUNNY     71  36  27 SE3       29.99S
TWIN FALLS     SUNNY     77  35  21 N6        29.99S
$$

IDZ019>023-011800-
SOUTHEAST IDAHO


CITY           SKY/WX    TMP DP  RH WIND       PRES   REMARKS
IDAHO FALLS    SUNNY     69  38  32 CALM      30.03S
POCATELLO      SUNNY     71  38  29 VRB5      30.03S
REXBURG        SUNNY     69  39  33 CALM      30.04S
$$

IDZ006-010-011-018-031-032-011800-
CENTRAL IDAHO MOUNTAINS


CITY           SKY/WX    TMP DP  RH WIND       PRES   REMARKS
MCCALL         SUNNY     62  41  46 CALM      30.00F
HAILEY         SUNNY     68  36  30 CALM      30.06S
STANLEY          N/A     58  33  39 N6        30.11F
SALMON         SUNNY     63  37  39 N3        29.97F
CHALLIS        SUNNY     64  37  36 NE5       30.03F
$$

IDZ002-004-006-007-026-011800-
NORTHERN IDAHO


CITY           SKY/WX    TMP DP  RH WIND       PRES   REMARKS
LEWISTON       MOSUNNY   67  47  48 CALM      29.93F
LOWELL           N/A     62  50  64 CALM      29.94F
COEUR D`ALENE  PTSUNNY   63  46  55 NW7       29.93S
MULLAN PASS    MOSUNNY   51  39  63 VRB6      30.01S
$$


USA.gov is the U.S. government's official web portal to all federal, state and local government web resources and services.